Regional Weather Roundup
Issued by NWS Newport/Morehead, NC

Home | Current Version | Previous Version | Text Only | Print | Product List | Glossary On
Versions: 1 2 3 4 5 6 7 8 9 10 11 12 13 14 15 16 17 18 19 20 21 22 23 24 25 26 27 28 29 30 31 32 33 34 35 36 37 38 39 40 41 42 43 44 45 46 47 48 49 50
646
ASUS42 KMHX 311025
RWRMHX
WEATHER ROUNDUP FOR EASTERN NORTH CAROLINA
NATIONAL WEATHER SERVICE NEWPORT/MOREHEAD CITY NC
600 AM EDT TUE MAY 31 2016

NOTE: "FAIR" INDICATES FEW OR NO CLOUDS BELOW 12,000 FEET
WITH NO SIGNIFICANT WEATHER AND/OR OBSTRUCTIONS TO VISIBILITY

NCZ015>017-031-032-045>047-102-103-311100-
NORTH COAST

CITY           SKY/WX    TMP DP  RH WIND       PRES   REMARKS
EDENTON        CLOUDY   N/A N/A N/A NE3       29.93S FOG
ELIZABETH CITY CLOUDY    70  69  97 CALM      29.93R
KITTY HAWK     FOG       67  67 100 CALM      29.92R VSB 1/4
MANTEO         NOT AVBL

$$

NCZ045>047-081-094-103-104-311100-
CENTRAL COAST

CITY           SKY/WX    TMP DP  RH WIND       PRES   REMARKS
FRISCO         MOCLDY    70  69  97 NE5       29.91S

$$

NCZ095-097-098-100-101-311100-
SOUTHERN COAST

CITY           SKY/WX    TMP DP  RH WIND       PRES   REMARKS
BEAUFORT       CLOUDY    73  71  93 NE6       29.90R
CEDAR ISLAND   NOT AVBL
JACKSONVILLE   CLOUDY    72  70  93 N5        29.89R
PINEY ISLAND   NOT AVBL
WILMINGTON     CLOUDY    71  70  96 NE7       29.88S


$$

NCZ011>013-027>030-043-044-078>080-089-090>093-098-311100-
COASTAL PLAIN

CITY           SKY/WX    TMP DP  RH WIND       PRES   REMARKS
AHOSKIE        CLOUDY    68  67  98 CALM      29.94S FOG
CLINTON        CLOUDY    71  71 100 N5        29.92R FOG
ELIZABETHTOWN  CLOUDY    71  71 100 CALM      29.90R FOG
GOLDSBORO      CLOUDY    70  70 100 NE6       29.91R
GREENVILLE     CLOUDY    70  70 100 N5        29.95S FOG
HAVELOCK       CLOUDY    73  71  93 NE7       29.91S
KENANSVILLE    CLOUDY    70  69  98 N5        29.93R FOG
KINSTON        CLOUDY    69  69 100 N6        29.94R FOG
NEW BERN       CLOUDY    71  69  93 NE7       29.92R
RICHLANDS      CLOUDY    71  71 100 N6        29.91R FOG
ROCKY MOUNT    CLOUDY    70  70 100 CALM      29.93S
WASHINGTON     FOG       68  68  99 N5        29.93R VSB 3/4
WHITEVILLE     CLOUDY    71  70  96 N3        29.89R FOG

$$

AMZ130-135-150-152-154-156-158-170-250-252-270-ANZ085-086-088-633-658-670-311100-
MARINE OBSERVATIONS

STATION/POSITION TIME  TEMP    WIND        PRES    WAVE   SWELL
                       AIR SEA DIR/SP/G            HT/PER HT/PER
                 (UTC) (F)     (DEG/KT/KT) (MB)    (FT/S) (FT/S)
CHESAPEAKE LIGHT 1000   69      30/  5/  5 1014.3
64 E VA BEACH    0950   65 65  310/  8/ 10 1012.4    6/ 8   7/ 8
DUCK             1000   65 58   10/  5/  5 1012.8
2 E DUCK         0911      62                N/A     4/ 7
OREGON INLET     1000   67 74   20/  3/  4 1013.1
13E OREGON INLT  1000      67                N/A     5/ 9   5/ 9
HATTERAS CG      1000   72 74   20/  2/  3 1012.3
DIAMOND BUOY     0950   78 80  210/ 14/ 16 1012.4    6/ 8   5/ 8
CAPE LOOKOUT     1000   75     130/  5/  5 1011.8
BEAUFORT LAB     1000   74 75   10/  5/  5 1011.6
30 SE NEW RVR IN 0925      76                N/A     5/ 8   2/11
27 SE WRIGHTSVLE 1008   76 76   70/  6/  8 1011.4
5 SE WRIGHTSVLE  1008   76 76  110/  6/ 10 1012.3
225 S CAPE HAT   0950   75 76  140/ 12/ 14 1014.5    5/ 8   3/ 8
41 SE CHARLESTON 0950   74 77  290/ 14/ 16 1010.5    4/ 8   3/ 8

$$




USA.gov is the U.S. government's official web portal to all federal, state and local government web resources and services.